TRINITY LAKE (CLE)

Elevation: 2370' · TRINITY R basin · Operator: US Bureau of Reclamation

Provisional data, subject to change.
Query executed Friday at 11:13:59   clock

Select a sensor type for a plot of data.
Note: Reservoir Flows are daily averages.

Earlier

Date RES ELE    STORAGE    RES CHG    OUTFLOW    INFLOW    EVAP    FNF    RIV REL    PPT INC    SPILL    DIS PWR   
 FEET   AF   AF   CFS   CFS   CFS   CFS   CFS   INCHES   CFS   CFS  
10/01/2014 2202.60 604451 -2175 841 -221 35 -221 e 841 0.00 0 0
10/02/2014 2202.22 602089 -2362 929 -233 29 -233 e 929 0.00 0 0
10/03/2014 2202.00 600722 -1367 882 239 46 239 e 882 0.00 0 0
10/04/2014 2202.00 600722 0 1010 1037 27 1037 e 1010 0.00 0 0
10/05/2014 2202.00 600722 0 908 937 29 937 e 908 0.00 0 0
10/06/2014 2201.08 595041 -5681 893 -- 29 -1942 e 893 0.00 0 0
10/07/2014 2200.75 593014 -2027 867 -130 25 -130 e 867 0.00 0 0
10/08/2014 2200.75 593014 0 803 834 31 834 e 803 0.00 0 0
10/09/2014 2200.75 593014 0 968 1001 33 1001 e 968 0.00 0 0
10/10/2014 2199.85 587500 -5514 481 -- 27 -2272 e 481 0.00 0 0
10/11/2014 2199.85 587500 0 1272 1292 20 1292 e 1272 0.00 0 0
10/12/2014 2199.85 587500 0 1128 1155 27 1155 e 1128 0.00 0 0
10/13/2014 2199.85 587500 0 751 774 23 774 e 751 0.00 0 0
10/14/2014 2198.50 579302 -8198 1100 -- 21 -3012 498 0.00 0 602
10/15/2014 2198.50 579302 0 901 913 12 913 527 0.48 0 374
10/16/2014 2197.88 575560 -3742 943 -926 18 -926 0 0.02 0 943
10/17/2014 2197.59 573822 -1738 1129 267 14 267 0 0.00 0 1129
10/18/2014 2197.59 573822 0 725 734 9 734 0 0.00 0 725
10/19/2014 2197.59 573822 0 1152 1156 4 1156 0 0.00 0 1152
10/20/2014 2196.17 565346 -8476 2169 -- 3 -2101 439 0.00 0 1730
10/21/2014 2196.17 565346 0 2159 2185 26 2185 500 0.24 0 1659
10/22/2014 2195.35 560498 -4848 1347 -1083 14 -1083 404 0.00 0 943
10/23/2014 2195.35 560498 0 924 926 2 926 824 0.61 0 100
10/24/2014 2195.40 560793 295 888 1044 7 1044 888 1.18 0 0
10/25/2014 2195.40 560793 0 510 527 17 527 510 0.16 0 0
10/26/2014 2195.40 560793 0 1217 1227 10 1227 1217 0.32 0 0
10/27/2014 2196.10 564930 4137 475 2573 12 2573 475 0.00 0 0
10/28/2014 2196.10 564930 0 726 738 12 738 706 0.00 0 20
10/29/2014 2195.91 563804 -1126 985 424 7 424 409 0.00 0 576
10/30/2014 2195.70 562564 -1240 791 173 7 173 277 0.00 0 514
10/31/2014 -- -- -- -- -- -- -- -- -- -- --

Later | Latest

Warning! This data is preliminary and subject to revision.

Show CLE Map | Plot CLE Data | 1 Month CLE Data | Real-Time CLE Data | CLE Info